Location: Croissy-Beaubourg
(48.8283°N, 2.6696°E)
Time: 01:46:52
(UTC+00:00)

USA 215 - Pass Details

Date: 02 June 2022
Orbit: 1099 x 1108 km, 123.0° (Epoch: 10 June)

Event Time Altitude Azimuth Distance (km) Brightness Sun altitude
Rises 23:45:08 0° 55° (NE) 3,926 6.7 -18.9°
Reaches altitude 10° 23:47:41 10° 60° (ENE) 2,967 5.9 -18.9°
Maximum altitude 23:54:07 56° 138° (SE) 1,290 3.4 -18.9°
Enters shadow 23:57:43 27° 205° (SSW) 1,980 4.1 -18.8°
